Wind_Speed
28 29 30 30 28 26 24 24 24 23 22 22 23 23 21 21 21 22 19 19 18 18 18 18 17 17 17 16 16 16 16 15 14 14 13 12 12 12 13 13 15 16 17 18 19 20 20 21 22
27 28 30 32 31 28 27 27 26 25 23 22 22 23 22 22 22 22 22 20 19 19 19 19 19 18 18 17 17 17 16 16 15 14 13 13 12 12 13 14 15 17 18 19 20 21 21 21 21
28 28 30 31 31 28 28 28 27 26 24 22 22 23 23 23 23 24 24 22 20 20 20 20 20 20 19 18 17 17 17 16 15 14 13 13 13 13 13 14 15 17 18 20 21 22 22 22 23
30 30 30 30 28 28 31 30 29 28 26 24 22 22 23 24 25 26 25 24 22 21 21 21 21 20 20 19 18 17 17 16 15 14 14 13 13 14 14 15 16 17 18 19 20 21 22 23 24
33 33 32 29 25 27 32 33 32 30 28 26 24 22 23 24 25 26 26 25 24 23 22 22 22 21 20 19 18 18 17 17 15 15 14 14 14 14 15 15 16 18 18 19 20 21 22 24 25
34 34 34 29 24 27 32 34 34 32 30 29 27 25 24 24 26 26 26 25 24 23 22 22 21 21 20 19 18 18 18 17 16 15 15 15 15 15 15 16 17 18 20 21 22 23 24 25 26
35 35 34 29 26 28 31 35 35 34 33 33 31 28 25 25 26 26 25 24 23 22 22 21 20 20 19 19 19 19 19 19 17 17 16 16 16 16 16 16 17 18 19 21 22 23 25 26 27
36 37 34 29 25 26 32 35 36 36 36 36 34 31 28 27 26 25 25 23 22 22 21 20 20 19 19 19 19 20 21 21 20 18 18 17 17 16 16 16 17 18 19 20 21 22 24 25 26
36 37 32 26 26 27 33 37 37 37 37 38 37 35 31 29 28 27 25 24 23 22 21 21 20 20 20 19 20 21 22 22 21 20 19 19 18 18 17 17 18 19 20 20 22 23 24 25 26
35 35 29 27 28 30 35 40 40 39 38 39 38 36 35 32 30 27 25 24 23 23 22 22 22 21 21 20 20 21 22 23 23 22 21 21 20 20 20 20 21 22 23 24 25 26 27 27 28
34 33 30 30 30 33 37 41 42 41 39 38 39 39 38 35 32 28 27 26 26 25 24 24 23 23 22 22 21 21 21 22 24 24 23 22 22 22 23 23 24 26 27 29 31 31 32 32 33
34 32 32 31 32 35 37 41 43 41 38 38 39 40 40 38 34 31 29 28 28 27 26 26 25 25 24 23 22 21 21 22 23 25 25 24 24 24 25 26 27 29 30 32 33 34 34 35 37
34 33 34 33 34 35 37 39 42 40 37 38 39 39 39 39 36 33 31 30 30 29 28 28 27 27 26 24 23 22 21 21 23 24 25 25 25 25 26 27 29 30 31 31 32 32 33 34 35
34 34 35 35 36 37 38 39 42 37 38 38 38 38 38 39 38 36 34 32 31 30 30 30 29 29 27 26 24 22 21 22 23 25 25 25 25 26 27 28 29 29 29 30 30 31 31 33 34
35 36 36 37 38 39 41 43 40 37 40 40 38 37 37 38 39 39 37 34 32 31 31 31 30 30 29 27 25 22 21 23 24 25 24 25 25 26 27 28 28 29 30 30 31 31 32 33 35
36 38 38 38 40 41 45 45 40 41 43 42 40 38 37 36 38 39 39 37 34 32 31 31 31 30 30 28 26 23 23 24 25 25 25 25 25 26 27 28 29 30 30 31 31 32 33 35 37
39 40 41 41 43 44 47 47 43 44 46 44 43 41 39 37 37 38 40 39 37 34 32 32 31 30 30 28 26 25 25 26 26 26 26 25 26 27 28 29 30 31 31 32 33 34 36 38 40
41 43 45 45 46 47 49 49 46 46 49 47 45 44 41 38 37 39 40 40 38 36 33 32 31 30 29 28 27 26 27 27 28 27 26 27 28 29 30 30 31 31 32 34 35 37 39 40 41
45 46 47 47 48 49 50 51 49 48 50 50 48 46 43 40 39 40 40 39 38 37 34 33 32 31 29 28 28 28 29 29 29 28 28 29 30 31 31 32 32 33 34 36 38 40 41 41 41
46 48 49 49 50 52 52 53 52 51 50 50 50 48 45 43 41 41 40 38 38 37 36 34 33 32 30 29 28 29 29 30 29 29 30 31 31 32 33 33 34 35 37 39 40 42 42 43 43
47 49 50 52 53 54 55 54 53 53 52 51 51 49 47 45 44 42 40 38 38 38 37 35 34 33 31 29 28 29 30 30 30 31 31 32 33 34 35 36 37 38 40 41 42 43 45 46 46
49 50 53 54 56 56 57 59 52 52 53 53 51 50 49 48 47 44 41 38 37 38 37 36 35 34 32 30 29 29 30 30 31 32 33 34 35 36 37 38 39 41 42 43 44 45 47 47 48
49 50 52 54 57 59 58 62 56 50 51 51 51 50 50 49 48 45 42 38 38 38 38 37 35 34 32 30 29 29 30 30 31 32 34 35 36 38 39 40 41 43 44 45 46 47 48 49 50
48 49 51 53 56 60 57 61 60 53 49 48 50 51 50 49 48 46 43 40 39 38 38 37 35 34 32 30 29 29 29 30 32 33 35 36 38 39 40 42 43 44 45 46 48 49 50 51 53
45 47 50 54 56 59 57 60 60 55 52 48 48 50 51 50 49 47 44 41 39 38 37 37 35 34 32 31 30 29 29 30 32 34 35 37 38 39 41 42 44 45 46 47 49 50 52 53 56
42 45 48 52 54 55 54 58 54 53 53 50 47 48 50 50 48 47 44 41 39 38 38 37 35 34 32 31 30 30 30 31 33 34 36 37 38 40 41 43 44 46 47 49 50 52 54 56 59
39 41 42 46 49 51 51 49 47 47 50 49 46 47 48 48 47 45 44 42 40 39 38 37 35 34 32 31 30 30 30 32 33 34 35 37 39 40 42 44 46 47 49 50 52 54 56 59 61
34 36 37 41 45 47 46 42 37 36 38 40 43 45 46 46 45 43 42 42 40 39 39 37 35 34 33 31 30 30 31 32 33 34 36 38 39 41 43 45 47 49 51 53 54 56 59 61 64
30 32 33 36 39 41 40 31 25 26 28 33 38 42 44 43 41 40 41 41 40 39 38 37 35 33 32 31 31 31 31 32 33 34 36 38 40 42 44 47 49 51 53 55 57 59 61 64 67
28 28 29 32 33 33 33 19 16 17 22 29 36 39 41 40 39 38 39 39 39 38 37 35 33 33 32 31 31 31 31 32 33 34 36 39 41 43 46 48 50 52 54 56 59 61 64 66 68
Wind_Direction
250 248 247 247 247 247 249 252 255 255 252 249 248 248 250 254 259 263 265 265 263 262 263 265 266 269 273 279 283 287 290 292 295 296 295 294 292 288 284 280 277 273 271 271 271 272 274 275 275
254 250 248 246 245 245 247 250 254 257 259 256 251 248 248 249 253 257 261 263 263 262 264 266 267 269 272 276 280 283 285 288 290 291 292 290 286 283 281 279 278 276 275 273 272 273 274 276 277
257 254 250 248 246 245 247 249 252 256 257 257 256 252 249 249 251 252 256 260 260 260 262 265 267 269 270 273 276 279 282 284 287 288 289 288 283 278 277 278 279 279 279 277 275 273 274 275 276
256 256 254 252 249 246 246 246 249 252 253 254 257 257 252 249 249 250 252 255 256 256 259 263 266 267 268 270 272 273 276 279 282 285 287 285 282 278 277 278 279 281 282 281 278 276 275 275 276
255 255 255 255 252 247 247 246 246 249 251 252 253 256 256 253 252 252 252 252 253 254 255 259 262 265 266 268 268 267 269 272 276 280 283 282 281 279 278 278 279 279 281 282 282 281 280 280 279
255 256 256 256 251 246 247 246 246 247 249 249 249 249 253 255 255 255 254 252 251 250 251 255 259 262 265 266 265 262 262 265 269 274 278 279 279 280 281 282 282 282 282 282 282 283 283 283 283
256 257 257 255 248 245 248 249 247 246 247 247 247 247 249 253 255 256 254 251 248 247 248 252 257 261 265 266 263 260 258 259 262 267 271 274 275 277 280 284 286 287 287 286 286 287 286 286 285
257 258 257 256 251 244 246 249 248 245 246 247 247 247 247 250 254 256 255 251 246 245 247 252 258 263 267 268 264 259 256 256 258 262 266 269 271 274 278 282 286 288 288 289 290 290 290 289 288
258 258 259 257 250 240 241 246 247 245 245 246 247 248 247 248 251 254 253 250 245 244 246 252 259 266 270 271 266 259 255 254 255 259 264 266 269 274 278 282 285 288 290 291 291 291 291 291 291
259 261 260 255 247 240 238 243 246 244 243 244 246 247 247 246 247 249 249 246 243 242 244 251 259 266 271 273 268 260 255 253 254 257 262 265 269 274 279 283 286 288 290 291 292 292 292 292 291
262 262 258 253 247 241 239 243 247 247 246 246 246 246 245 245 245 246 245 243 241 241 243 248 255 263 268 271 269 262 256 254 255 257 260 265 269 274 280 284 287 290 292 293 293 293 293 293 293
264 262 258 254 249 244 242 243 248 250 249 248 248 247 247 246 245 244 243 241 240 240 242 247 253 259 265 270 269 264 258 255 257 258 260 264 269 275 280 284 288 290 293 294 294 294 293 292 291
266 264 259 255 251 249 246 246 249 252 251 250 250 249 248 247 246 244 243 242 241 241 243 246 250 256 261 266 268 264 259 257 258 260 262 265 269 274 280 284 288 291 294 295 295 295 294 293 292
267 265 262 259 254 252 251 249 250 252 253 251 250 249 248 247 246 244 243 243 243 243 243 246 250 253 258 262 265 263 258 256 258 261 263 266 270 275 279 283 287 291 293 295 296 296 295 294 294
269 267 265 262 258 254 252 249 251 251 251 252 251 249 248 247 246 245 243 243 244 244 244 246 249 252 255 259 261 260 256 255 258 260 263 267 271 275 278 282 286 289 292 294 294 295 295 295 295
270 269 267 264 261 257 255 253 248 247 247 249 249 248 246 245 246 246 245 243 243 244 245 245 248 251 253 255 258 257 253 254 257 260 263 267 271 274 278 283 286 288 290 292 293 294 295 295 295
272 271 268 264 260 258 256 255 247 245 246 246 246 247 245 244 244 245 246 244 244 246 246 245 246 249 251 253 255 254 251 252 255 258 262 266 270 274 279 283 286 288 289 291 293 294 295 296 296
272 270 268 266 262 259 258 257 251 245 245 246 245 245 245 244 242 243 246 245 245 246 248 247 245 247 249 250 252 251 249 251 254 257 260 264 269 273 278 283 287 288 290 291 293 295 296 296 295
273 273 271 269 265 261 258 257 253 248 246 245 246 245 245 244 242 243 245 245 244 245 247 247 246 246 247 248 250 249 249 251 253 256 260 264 269 274 279 284 287 288 290 292 294 296 297 296 295
274 273 272 269 266 263 260 256 253 250 247 246 245 244 244 243 242 243 244 243 241 242 244 246 246 245 245 247 249 250 251 252 254 256 260 265 271 276 281 285 287 289 292 294 295 296 297 297 296
274 272 270 267 264 263 262 257 253 250 248 245 244 244 243 242 241 242 242 242 240 240 242 245 245 244 244 245 248 250 251 252 254 258 262 267 272 277 282 286 288 290 293 294 296 297 297 297 297
273 271 269 267 265 263 261 261 252 249 247 246 244 243 242 241 240 240 240 240 239 239 241 244 245 245 244 244 246 248 250 252 256 260 264 269 274 279 283 286 289 292 294 295 296 297 298 298 298
275 272 270 269 267 264 262 261 256 249 246 245 244 242 241 240 239 238 238 237 237 238 239 242 244 245 245 245 246 249 251 254 258 262 266 271 276 280 283 287 290 293 294 296 297 298 299 298 298
276 274 272 270 268 265 263 262 256 250 246 243 242 241 239 238 237 236 234 233 235 236 238 241 243 244 245 245 247 250 253 256 260 264 268 273 277 280 284 288 292 294 296 297 299 299 299 299 299
278 276 274 271 269 268 266 262 259 253 248 242 239 238 236 235 234 233 232 231 232 234 236 239 242 242 244 245 248 252 256 260 263 267 270 274 278 282 287 290 293 295 297 298 299 299 299 299 299
280 277 275 274 273 271 267 263 259 252 249 241 235 233 233 232 231 230 228 226 227 230 233 236 239 240 242 245 249 254 258 262 266 269 273 277 281 285 289 292 294 297 298 299 299 299 299 299 299
284 281 277 273 272 270 268 267 260 252 248 241 232 228 227 227 227 225 223 221 222 226 230 233 236 239 242 246 251 255 260 264 268 271 276 280 284 287 291 294 296 297 298 298 299 299 299 300 300
288 283 276 272 271 271 271 270 264 252 245 235 225 221 221 221 220 219 218 218 219 223 227 232 235 239 243 248 253 257 262 266 270 274 278 282 286 290 293 295 296 297 298 298 299 299 300 301 302
291 286 280 275 273 271 274 271 261 251 236 221 213 212 213 212 212 211 212 215 218 222 226 231 235 239 244 249 254 259 264 269 273 277 281 285 289 292 294 295 296 297 298 299 300 301 302 303 304
298 292 282 277 277 275 275 270 247 235 216 205 201 201 203 203 203 203 207 212 217 222 226 230 234 239 244 249 255 261 266 271 275 280 284 288 290 292 294 295 297 298 299 300 302 303 304 305 305
Height
5809 5811 5813 5816 5819 5820 5821 5822 5823 5824 5825 5826 5827 5828 5830 5832 5834 5837 5838 5837 5838 5839 5840 5840 5841 5841 5842 5842 5842 5842 5842 5842 5842 5842 5841 5841 5841 5842 5842 5843 5843 5843 5844 5844 5844 5844 5844 5844 5844
5804 5806 5808 5810 5813 5815 5817 5818 5819 5821 5823 5824 5824 5825 5826 5828 5829 5831 5832 5833 5834 5836 5836 5837 5837 5838 5839 5839 5839 5839 5839 5839 5839 5839 5839 5839 5839 5839 5839 5840 5840 5840 5841 5841 5841 5841 5841 5841 5841
5800 5801 5803 5805 5808 5811 5813 5814 5815 5817 5819 5821 5822 5823 5824 5825 5826 5827 5828 5830 5831 5832 5833 5833 5834 5834 5835 5835 5836 5836 5835 5835 5835 5836 5836 5836 5836 5836 5837 5837 5837 5837 5837 5838 5838 5838 5838 5837 5837
5795 5796 5798 5801 5804 5807 5808 5809 5811 5812 5815 5817 5818 5820 5821 5822 5822 5823 5824 5826 5827 5828 5829 5830 5830 5831 5831 5832 5832 5832 5832 5832 5832 5833 5833 5833 5833 5833 5833 5833 5834 5834 5834 5834 5834 5833 5833 5833 5832
5788 5790 5792 5796 5801 5802 5802 5803 5806 5808 5810 5812 5814 5815 5817 5818 5819 5819 5820 5822 5823 5824 5825 5826 5826 5827 5827 5828 5828 5828 5829 5829 5829 5830 5830 5830 5830 5830 5830 5830 5830 5830 5830 5830 5830 5829 5829 5828 5828
5782 5784 5787 5791 5796 5796 5796 5797 5800 5803 5805 5807 5808 5810 5812 5814 5815 5815 5816 5817 5819 5820 5821 5822 5822 5823 5823 5824 5824 5825 5825 5826 5826 5826 5827 5827 5827 5827 5827 5827 5826 5826 5826 5826 5826 5825 5825 5824 5823
5776 5778 5780 5786 5790 5791 5792 5791 5794 5797 5799 5801 5803 5805 5807 5809 5811 5812 5812 5813 5815 5816 5817 5818 5818 5819 5819 5820 5820 5821 5821 5822 5823 5823 5824 5824 5824 5824 5824 5823 5823 5823 5822 5822 5821 5821 5820 5820 5819
5769 5771 5774 5780 5784 5787 5785 5784 5787 5790 5793 5795 5797 5800 5802 5804 5806 5807 5809 5809 5811 5812 5813 5814 5814 5815 5815 5816 5816 5817 5817 5818 5819 5819 5820 5820 5821 5821 5820 5820 5820 5819 5819 5818 5817 5817 5816 5815 5814
5762 5764 5769 5775 5778 5780 5778 5777 5780 5783 5786 5788 5791 5794 5797 5799 5801 5803 5804 5806 5807 5808 5809 5810 5811 5811 5811 5811 5812 5812 5813 5814 5815 5816 5816 5817 5817 5817 5817 5816 5816 5816 5815 5814 5814 5813 5812 5811 5809
5755 5758 5765 5768 5770 5772 5771 5770 5771 5775 5779 5781 5784 5787 5790 5792 5795 5797 5799 5801 5802 5803 5805 5806 5806 5807 5807 5807 5807 5808 5809 5810 5811 5812 5812 5812 5813 5813 5813 5812 5812 5812 5811 5810 5809 5808 5807 5806 5804
5749 5752 5757 5759 5761 5762 5763 5763 5764 5768 5772 5775 5778 5780 5782 5785 5789 5791 5794 5795 5797 5798 5800 5801 5801 5802 5802 5803 5803 5804 5805 5805 5806 5807 5808 5808 5808 5809 5808 5808 5808 5807 5806 5805 5804 5803 5801 5800 5798
5742 5746 5748 5751 5753 5754 5756 5757 5758 5761 5767 5769 5771 5773 5776 5779 5782 5785 5788 5789 5791 5792 5794 5795 5796 5797 5797 5798 5799 5799 5800 5801 5802 5802 5803 5803 5804 5804 5804 5803 5803 5802 5801 5799 5798 5796 5795 5793 5792
5735 5738 5740 5743 5746 5747 5749 5751 5752 5755 5760 5762 5763 5766 5769 5772 5776 5779 5782 5784 5785 5787 5788 5789 5790 5791 5792 5793 5794 5795 5795 5796 5797 5797 5798 5798 5799 5799 5799 5798 5797 5796 5795 5793 5791 5790 5788 5786 5784
5728 5730 5732 5735 5738 5740 5742 5744 5744 5750 5753 5754 5756 5758 5762 5765 5768 5772 5775 5778 5779 5781 5782 5783 5784 5786 5787 5788 5788 5789 5791 5791 5791 5792 5793 5793 5794 5794 5793 5793 5792 5790 5788 5787 5785 5783 5781 5779 5777
5721 5723 5725 5727 5729 5731 5732 5735 5739 5745 5744 5745 5748 5751 5754 5758 5761 5764 5767 5771 5773 5775 5776 5777 5778 5779 5781 5782 5783 5784 5785 5786 5786 5786 5787 5788 5788 5788 5788 5787 5786 5784 5782 5781 5779 5777 5775 5773 5770
5713 5714 5716 5719 5719 5720 5722 5726 5734 5733 5734 5737 5740 5743 5746 5750 5753 5756 5760 5763 5766 5768 5770 5771 5772 5773 5775 5776 5777 5778 5779 5780 5780 5781 5782 5782 5782 5782 5782 5781 5780 5778 5776 5775 5773 5771 5769 5766 5764
5705 5706 5706 5708 5708 5709 5711 5715 5723 5724 5724 5728 5731 5734 5738 5742 5746 5748 5751 5755 5759 5761 5763 5764 5766 5767 5768 5770 5771 5772 5773 5774 5775 5775 5776 5777 5777 5776 5776 5775 5773 5772 5770 5768 5766 5764 5762 5759 5756
5695 5695 5695 5696 5697 5698 5700 5704 5710 5713 5714 5718 5722 5726 5730 5734 5738 5740 5743 5747 5751 5754 5756 5757 5759 5760 5762 5763 5765 5766 5766 5768 5769 5770 5770 5771 5771 5770 5769 5768 5767 5765 5763 5761 5759 5756 5754 5751 5748
5684 5684 5684 5685 5685 5686 5689 5692 5697 5701 5704 5709 5713 5717 5722 5726 5729 5732 5735 5739 5743 5746 5748 5750 5752 5754 5755 5757 5758 5759 5760 5761 5762 5764 5764 5765 5764 5764 5763 5761 5760 5758 5756 5754 5751 5748 5745 5742 5739
5673 5672 5672 5673 5672 5672 5675 5679 5684 5689 5694 5699 5703 5707 5712 5717 5720 5723 5727 5730 5735 5738 5740 5743 5745 5747 5749 5751 5752 5753 5754 5755 5756 5757 5758 5758 5758 5757 5755 5754 5752 5750 5748 5745 5742 5739 5735 5732 5729
5661 5660 5659 5658 5658 5659 5660 5665 5673 5677 5681 5687 5692 5697 5702 5707 5711 5714 5718 5722 5726 5730 5733 5735 5738 5740 5742 5744 5745 5747 5748 5749 5750 5751 5751 5751 5750 5749 5748 5746 5744 5742 5739 5736 5733 5729 5725 5721 5717
5649 5647 5645 5643 5643 5645 5647 5646 5660 5665 5669 5675 5682 5687 5692 5696 5700 5705 5710 5714 5718 5722 5725 5728 5731 5733 5735 5737 5739 5740 5741 5742 5743 5744 5744 5743 5743 5741 5740 5738 5736 5733 5730 5726 5723 5719 5715 5710 5706
5635 5633 5632 5630 5628 5630 5633 5630 5641 5652 5657 5664 5670 5675 5680 5685 5690 5696 5701 5706 5710 5714 5717 5721 5724 5726 5728 5730 5732 5733 5734 5735 5736 5737 5736 5736 5735 5734 5732 5729 5727 5724 5720 5716 5712 5707 5703 5698 5693
5622 5620 5618 5615 5613 5614 5621 5615 5622 5637 5646 5652 5657 5661 5667 5673 5680 5686 5692 5697 5702 5706 5710 5713 5717 5719 5721 5723 5725 5726 5727 5728 5729 5729 5729 5728 5727 5725 5723 5720 5717 5714 5710 5705 5700 5695 5691 5686 5680
5610 5608 5604 5601 5599 5600 5604 5600 5608 5623 5629 5635 5642 5647 5653 5661 5668 5675 5682 5689 5694 5699 5703 5706 5709 5712 5714 5716 5718 5719 5720 5721 5721 5721 5721 5720 5719 5716 5714 5711 5707 5703 5699 5694 5689 5684 5679 5673 5667
5600 5596 5593 5589 5586 5586 5585 5585 5596 5606 5609 5617 5626 5633 5640 5649 5657 5665 5673 5680 5686 5691 5695 5698 5702 5705 5707 5709 5711 5712 5713 5714 5714 5713 5713 5712 5710 5708 5705 5701 5697 5693 5688 5683 5678 5672 5666 5660 5654
5590 5586 5584 5578 5573 5570 5570 5574 5581 5588 5591 5600 5610 5619 5627 5637 5646 5655 5663 5671 5677 5682 5687 5691 5695 5698 5700 5702 5704 5705 5706 5706 5706 5705 5704 5703 5701 5698 5695 5691 5687 5682 5677 5672 5666 5660 5654 5647 5640
5581 5577 5572 5567 5563 5559 5560 5563 5568 5573 5576 5584 5595 5606 5616 5625 5635 5645 5654 5662 5669 5674 5679 5684 5687 5691 5694 5696 5697 5698 5698 5698 5698 5697 5696 5694 5692 5689 5685 5681 5676 5671 5666 5660 5654 5648 5641 5634 5626
5573 5568 5563 5559 5556 5553 5550 5556 5560 5561 5565 5573 5584 5595 5606 5617 5628 5638 5647 5655 5662 5668 5673 5677 5681 5685 5687 5689 5690 5691 5691 5691 5690 5689 5688 5686 5683 5680 5676 5671 5666 5660 5654 5648 5642 5635 5627 5620 5611
5565 5561 5557 5553 5550 5547 5545 5549 5553 5555 5559 5567 5578 5589 5600 5611 5622 5632 5641 5649 5656 5662 5667 5671 5675 5678 5681 5682 5683 5684 5684 5683 5682 5681 5679 5677 5674 5670 5665 5660 5655 5649 5642 5636 5629 5622 5614 5605 5597